Clarksburg, WV

1:30 PM EDT on October 20, 2019 (GMT -0400)
Benedum

Weather History for KCKB - August, 2019

Change the Weather History Date:

Sunday, August 25, 2019

  Actual Average Record
Temperature  
Mean Temperature 65 °F -  
Max Temperature 79 °F 82 °F 97 °F (1959)
Min Temperature 53 °F 59 °F 44 °F (1942)
Growing Degree Days 15 (Base 50)    
Moisture  
Dew Point 51 °F    
Average Humidity 60    
Maximum Humidity 86    
Minimum Humidity 40    
Precipitation  
Precipitation 0.00 in - - ()
Sea Level Pressure  
Sea Level Pressure 30.15 in    
Wind  
Wind Speed 4 mph ()    
Max Wind Speed 15 mph    
Max Gust Speed 20 mph    
Visibility 10.0 miles    
Events      
Averages and records for this station are not official NWS values.
T = Trace of Precipitation, MM = Missing Value Source: Averaged Metar Reports

Daily Weather History Graph

Daily Weather History Graph

Search for Another Location

Airport or City:

Astronomy

Aug. 25, 2019 Rise Set
Actual Time 6:42 AM EDT 8:02 PM EDT
Civil Twilight 6:14 AM EDT 8:30 PM EDT
Nautical Twilight 5:41 AM EDT 9:03 PM EDT
Astronomical Twilight 5:06 AM EDT 9:38 PM EDT
Moon 1:17 AM EDT (8/25) 4:20 PM EDT (8/25)
Length of Visible Light 14h 15m
Length of Day
13h 19m
Waning Crescent, 29% of the Moon is Illuminated
Aug 25
Waning Crescent
Aug 30
New
Sep 5
First Quarter
Sep 14
Full
Sep 21
Last Quarter

Hourly Weather History & Observations

Time (EDT) Temp. Dew Point Humidity Pressure Visibility Wind Dir Wind Speed Gust Speed Precip Events Conditions
12:53 AM 61.0 °F 50.0 °F 67% 30.18 in 10.0 mi ENE 3.5 mph - N/A   Clear
1:53 AM 59.0 °F 50.0 °F 72% 30.18 in 10.0 mi Calm Calm - N/A   Partly Cloudy
2:53 AM 57.0 °F 50.0 °F 77% 30.17 in 10.0 mi Calm Calm - N/A   Clear
3:53 AM 55.9 °F 50.0 °F 80% 30.16 in 10.0 mi Calm Calm - N/A   Clear
4:53 AM 55.0 °F 50.0 °F 83% 30.16 in 10.0 mi Calm Calm - N/A   Clear
5:53 AM 53.1 °F 48.9 °F 86% 30.17 in 10.0 mi NE 4.6 mph - N/A   Clear
6:53 AM 54.0 °F 48.0 °F 80% 30.18 in 10.0 mi Calm Calm - N/A   Clear
7:53 AM 57.9 °F 51.1 °F 78% 30.19 in 10.0 mi Calm Calm - N/A   Clear
8:53 AM 63.0 °F 53.1 °F 70% 30.19 in 10.0 mi Calm Calm - N/A   Clear
9:53 AM 68.0 °F 54.0 °F 61% 30.18 in 10.0 mi ESE 5.8 mph - N/A   Clear
10:53 AM 72.0 °F 54.0 °F 53% 30.18 in 10.0 mi ESE 8.1 mph - N/A   Clear
11:53 AM 73.9 °F 51.1 °F 45% 30.17 in 10.0 mi ESE 8.1 mph - N/A   Partly Cloudy
12:53 PM 75.0 °F 48.9 °F 40% 30.16 in 10.0 mi ESE 10.4 mph - N/A   Scattered Clouds
1:53 PM 77.0 °F 52.0 °F 42% 30.14 in 10.0 mi East 10.4 mph - N/A   Clear
2:53 PM 75.0 °F 51.1 °F 43% 30.13 in 10.0 mi East 11.5 mph - N/A   Mostly Cloudy
3:53 PM 75.9 °F 51.1 °F 42% 30.12 in 10.0 mi East 15.0 mph 19.6 mph N/A   Clear
4:53 PM 77.0 °F 51.1 °F 40% 30.12 in 10.0 mi ESE 9.2 mph - N/A   Clear
5:53 PM 75.0 °F 52.0 °F 44% 30.11 in 10.0 mi East 11.5 mph - N/A   Clear
6:53 PM 73.0 °F 51.1 °F 46% 30.11 in 10.0 mi East 8.1 mph - N/A   Clear
7:53 PM 71.1 °F 48.9 °F 45% 30.11 in 10.0 mi ESE 5.8 mph - N/A   Mostly Cloudy
8:53 PM 68.0 °F 48.9 °F 50% 30.11 in 10.0 mi ESE 5.8 mph - N/A   Clear
9:53 PM 66.9 °F 50.0 °F 54% 30.12 in 10.0 mi ESE 3.5 mph - N/A   Clear
10:53 PM 64.0 °F 50.0 °F 60% 30.12 in 10.0 mi East 3.5 mph - N/A   Clear
11:53 PM 61.0 °F 51.1 °F 70% 30.13 in 10.0 mi Calm Calm - N/A   Clear